Location: Newark
(47.5783°N, 6.7622°E)
Time: 05:35:22
(UTC+00:00)

Tiros 1 - All Passes

Search period start: 27 February 2020 00:00
Search period end: 08 March 2020 00:00
Orbit: 631 x 664 km, 48.4° (Epoch: 26 February)

Date Brightness Start Highest point End Pass type
(mag) Time Alt. Az. Time Alt. Az. Time Alt. Az.
27 Feb - 01:27:37 10° WSW 01:32:18 85° SSE 01:36:57 10° ENE visible
27 Feb - 03:09:56 10° W 03:14:36 83° N 03:19:14 10° E visible
27 Feb - 04:52:12 10° WNW 04:56:43 52° SSW 05:01:12 10° SE visible
27 Feb - 06:35:32 10° WSW 06:38:09 15° SW 06:40:47 10° S daylight
27 Feb - 22:31:39 10° S 22:34:43 17° SE 22:37:46 10° E night (unlit)
28 Feb - 00:11:41 10° SW 00:16:15 57° SSE 00:20:49 10° ENE night (unlit)
28 Feb - 01:53:44 10° W 01:58:24 81° N 02:03:03 10° E visible
28 Feb - 03:36:02 10° WNW 03:40:42 81° SSW 03:45:19 10° ESE visible
28 Feb - 05:18:29 10° W 05:22:31 30° SW 05:26:33 10° SSE visible
28 Feb - 22:56:13 10° SSW 23:00:22 32° SSE 23:04:31 10° E night (unlit)
29 Feb - 00:37:34 10° WSW 00:42:15 83° SSE 00:46:54 10° ENE night (unlit)
29 Feb - 02:19:52 10° W 02:24:32 82° N 02:29:11 10° E visible
29 Feb - 04:02:08 10° WNW 04:06:40 55° SSW 04:11:11 10° SE visible
29 Feb - 05:45:19 10° W 05:48:10 16° SW 05:51:00 10° S visible
29 Feb - 21:41:49 10° S 21:44:43 16° SE 21:47:35 10° E night (unlit)
29 Feb - 23:21:38 10° SW 23:26:12 54° SSE 23:30:45 10° ENE night (unlit)
01 Mar - 01:03:39 10° W 01:08:20 82° N 01:12:59 10° E night (unlit)
01 Mar - 02:45:58 10° WNW 02:50:39 83° SSW 02:55:16 10° ESE visible
01 Mar - 04:28:23 10° W 04:32:30 32° SW 04:36:36 10° SSE visible
01 Mar - 22:06:15 10° SSW 22:10:21 30° SE 22:14:25 10° E night (unlit)
01 Mar - 23:47:30 10° WSW 23:52:11 80° SSE 23:56:51 10° ENE night (unlit)
02 Mar - 01:29:47 10° W 01:34:28 81° N 01:39:08 10° E night (unlit)
02 Mar - 03:12:04 10° WNW 03:16:38 58° SSW 03:21:10 10° SE visible
02 Mar - 04:55:07 10° W 04:58:10 17° SW 05:01:12 10° S visible
02 Mar - 20:52:01 10° S 20:54:42 15° SE 20:57:22 10° ESE night (unlit)
02 Mar - 22:31:36 10° SW 22:36:10 51° SSE 22:40:42 10° ENE night (unlit)
03 Mar - 00:13:34 10° W 00:18:17 83° N 00:22:56 10° E night (unlit)
03 Mar - 01:55:54 10° WNW 02:00:35 86° SSW 02:05:13 10° ESE visible
03 Mar - 03:38:17 10° W 03:42:29 34° SSW 03:46:39 10° SSE visible
03 Mar - 21:16:17 10° SSW 21:20:19 28° SE 21:24:20 10° E night (unlit)
03 Mar - 22:57:25 10° WSW 23:02:08 78° SSE 23:06:48 10° ENE night (unlit)
04 Mar - 00:39:43 10° W 00:44:25 80° N 00:49:04 10° E night (unlit)
04 Mar - 02:22:00 10° WNW 02:26:36 60° SSW 02:31:09 10° ESE visible
04 Mar - 04:04:55 10° W 04:08:09 19° SW 04:11:22 10° S visible
04 Mar - 20:02:14 10° SSE 20:04:42 14° SE 20:07:08 10° ESE night (unlit)
04 Mar - 21:41:35 10° SW 21:46:07 49° SSE 21:50:38 10° E night (unlit)
04 Mar - 23:23:30 10° W 23:28:13 84° N 23:32:53 10° E night (unlit)
05 Mar - 01:05:49 10° W 01:10:31 88° SSW 01:15:10 10° ESE night (unlit)
05 Mar - 02:48:11 10° W 02:52:27 36° SSW 02:56:42 10° SE visible
05 Mar - 20:26:20 10° SSW 20:30:17 27° SE 20:34:14 10° E night (unlit)
05 Mar - 22:07:21 10° WSW 22:12:04 75° SSE 22:16:45 10° ENE night (unlit)
05 Mar - 23:49:38 10° W 23:54:21 80° N 23:59:01 10° E night (unlit)
06 Mar - 01:31:55 10° WNW 01:36:33 63° SSW 01:41:08 10° ESE night (unlit)
06 Mar - 03:14:46 10° W 03:18:09 20° SW 03:21:31 10° S night (unlit)
06 Mar - 19:12:30 10° SSE 19:14:41 13° SE 19:16:51 10° ESE visible
06 Mar - 20:51:33 10° SW 20:56:04 47° SSE 21:00:34 10° E visible
06 Mar - 22:33:24 10° W 22:38:08 85° NNW 22:42:50 10° E night (unlit)
07 Mar - 00:15:45 10° W 00:20:28 90° SSW 00:25:08 10° ESE night (unlit)
07 Mar - 01:58:06 10° W 02:02:26 39° SSW 02:06:43 10° SE night (unlit)
07 Mar - 19:36:23 10° SSW 19:40:16 25° SE 19:44:08 10° E visible
07 Mar - 21:17:17 10° WSW 21:22:00 72° SSE 21:26:41 10° ENE visible
07 Mar - 22:59:32 10° W 23:04:17 80° N 23:08:57 10° E night (unlit)
